Tracking 29892 objects as of 21-Nov-2024
HD Live streaming from Space Station
objects crossing your sky now

O3BF04

Track O3BF04 now!
10-day predictions


NORAD ID: 56367
Int'l Code: 2023-059A
Perigee: 8,064.6 km
Apogee: 8,081.4 km
Inclination: 0.1 °
Period: 287.9 minutes
Semi major axis: 14443 km
RCS: Unknown
Launch date: April 28, 2023
Source: SOCIETE EUROPEENNE DES SATELLITES (SES)
Launch site: AIR FORCE EASTERN TEST RANGE (AFETR)
Your satellite tracking list
Your tracking list is empty




NASA's NSSDC Master Catalog

Two Line Element Set (TLE):
1 56367U 23059A   24325.68988894 -.00000026  00000-0  00000-0 0  9991
2 56367   0.0610 351.6060 0005821 232.2543 136.0968  5.00117046 29912
Source of the keplerian elements: AFSPC